• In Belarus
  • List of Countries
  • For 7 days
  • Water Temperature
  • Satellite Maps
  • Weather Map
  • Weather Widgets
  • user-avatar
    Login

    Hourly Weather Algiers

    Today, 24 August, Thursday

    Time Temperature Precipitation Wind Pressure Humidity
    00:00 +30°C° 0 mm 4 mps 748 mmHg 45%
    01:00 +30°C° 0 mm 3 mps 748 mmHg 44%
    02:00 +30°C° 0 mm 3 mps 748 mmHg 42%
    03:00 +30°C° 0 mm 3 mps 748 mmHg 40%
    04:00 +30°C° 0 mm 3 mps 748 mmHg 39%
    05:00 +30°C° 0 mm 3 mps 748 mmHg 38%
    06:00 +30°C° 0 mm 3 mps 748 mmHg 37%
    07:00 +34°C° 0 mm 3 mps 749 mmHg 33%
    08:00 +36°C° 0 mm 3 mps 749 mmHg 28%
    09:00 +38°C° 0 mm 3 mps 749 mmHg 24%
    10:00 +39°C° 0 mm 3 mps 749 mmHg 23%
    11:00 +41°C° 0 mm 4 mps 749 mmHg 22%
    12:00 +42°C° 0 mm 4 mps 749 mmHg 20%
    13:00 +42°C° 0 mm 4 mps 748 mmHg 22%
    14:00 +42°C° 0 mm 4 mps 748 mmHg 23%
    15:00 +41°C° 0 mm 4 mps 748 mmHg 24%
    16:00 +40°C° 0 mm 4 mps 748 mmHg 27%
    17:00 +38°C° 0 mm 3 mps 748 mmHg 30%
    18:00 +37°C° 0 mm 3 mps 748 mmHg 33%
    19:00 +35°C° 0 mm 2 mps 748 mmHg 36%
    20:00 +34°C° 0 mm 2 mps 748 mmHg 39%
    21:00 +32°C° 0 mm 1 mps 749 mmHg 42%
    22:00 +32°C° 0 mm 2 mps 748 mmHg 40%
    23:00 +32°C° 0 mm 2 mps 748 mmHg 39%

    Tomorrow, 25 August, Friday

    Time Temperature Precipitation Wind Pressure Humidity
    00:00 +32°C° 0 mm 2 mps 748 mmHg 37%
    01:00 +32°C° 0 mm 2 mps 748 mmHg 36%
    02:00 +32°C° 0 mm 2 mps 748 mmHg 34%
    03:00 +32°C° 0 mm 2 mps 747 mmHg 33%
    04:00 +32°C° 0 mm 2 mps 748 mmHg 32%
    05:00 +32°C° 0 mm 2 mps 748 mmHg 32%
    06:00 +32°C° 0 mm 2 mps 748 mmHg 31%
    07:00 +35°C° 0 mm 2 mps 748 mmHg 28%
    08:00 +37°C° 0 mm 2 mps 748 mmHg 25%
    09:00 +39°C° 0 mm 2 mps 748 mmHg 22%
    10:00 +40°C° 0 mm 2 mps 748 mmHg 21%
    11:00 +42°C° 0 mm 3 mps 748 mmHg 21%
    12:00 +43°C° 0 mm 3 mps 748 mmHg 21%
    13:00 +42°C° 0 mm 3 mps 747 mmHg 22%
    14:00 +42°C° 0 mm 3 mps 747 mmHg 23%
    15:00 +42°C° 0 mm 3 mps 746 mmHg 24%
    16:00 +39°C° 0 mm 3 mps 746 mmHg 27%
    17:00 +38°C° 0 mm 2 mps 747 mmHg 30%
    18:00 +37°C° 0 mm 2 mps 747 mmHg 33%
    19:00 +35°C° 0 mm 1 mps 747 mmHg 34%
    20:00 +34°C° 0 mm 1 mps 747 mmHg 36%
    21:00 +34°C° 0 mm 1 mps 748 mmHg 37%
    22:00 +34°C° 0 mm 1 mps 747 mmHg 36%
    23:00 +34°C° 0 mm 1 mps 747 mmHg 36%

    Day after tomorrow, 26 August, Saturday

    Time Temperature Precipitation Wind Pressure Humidity
    00:00 +34°C° 0 mm 1 mps 747 mmHg 35%
    01:00 +33°C° 0 mm 1 mps 747 mmHg 35%
    02:00 +33°C° 0 mm 1 mps 746 mmHg 35%
    03:00 +33°C° 0 mm 1 mps 746 mmHg 35%
    04:00 +33°C° 0 mm 1 mps 746 mmHg 36%
    05:00 +32°C° 0 mm 1 mps 747 mmHg 36%
    06:00 +32°C° 0 mm 2 mps 747 mmHg 37%
    07:00 +35°C° 0 mm 2 mps 747 mmHg 33%
    08:00 +37°C° 0 mm 2 mps 747 mmHg 29%
    09:00 +39°C° 0 mm 2 mps 747 mmHg 26%
    10:00 +40°C° 0 mm 2 mps 747 mmHg 24%
    11:00 +41°C° 0 mm 2 mps 747 mmHg 22%
    12:00 +43°C° 0 mm 3 mps 747 mmHg 20%
    13:00 +43°C° 0 mm 3 mps 746 mmHg 20%
    14:00 +43°C° 0 mm 3 mps 746 mmHg 21%
    15:00 +43°C° 0 mm 4 mps 746 mmHg 21%
    16:00 +42°C° 0 mm 4 mps 746 mmHg 24%
    17:00 +39°C° 0 mm 3 mps 746 mmHg 27%
    18:00 +38°C° 0 mm 3 mps 746 mmHg 30%
    19:00 +37°C° 0.2 mm 3 mps 747 mmHg 33%
    20:00 +36°C° 0.2 mm 3 mps 747 mmHg 36%
    21:00 +35°C° 0.2 mm 2 mps 748 mmHg 39%
    22:00 +34°C° 0.1 mm 2 mps 747 mmHg 39%
    23:00 +34°C° 0.1 mm 2 mps 747 mmHg 40%

    27 August, Sunday

    Time Temperature Precipitation Wind Pressure Humidity
    00:00 +34°C° 0.1 mm 2 mps 747 mmHg 40%
    01:00 +34°C° 0 mm 2 mps 747 mmHg 40%
    02:00 +34°C° 0 mm 2 mps 747 mmHg 40%
    03:00 +32°C° 0 mm 2 mps 746 mmHg 40%
    04:00 +32°C° 0 mm 2 mps 747 mmHg 40%
    05:00 +32°C° 0 mm 2 mps 747 mmHg 41%
    06:00 +32°C° 0 mm 2 mps 747 mmHg 42%
    07:00 +35°C° 0 mm 2 mps 747 mmHg 37%
    08:00 +37°C° 0 mm 2 mps 748 mmHg 32%
    09:00 +39°C° 0 mm 1 mps 748 mmHg 28%
    10:00 +40°C° 0 mm 2 mps 748 mmHg 26%
    11:00 +41°C° 0 mm 2 mps 748 mmHg 24%
    12:00 +43°C° 0 mm 3 mps 747 mmHg 22%
    13:00 +43°C° 0 mm 3 mps 747 mmHg 22%
    14:00 +43°C° 0 mm 4 mps 747 mmHg 22%
    15:00 +43°C° 0 mm 4 mps 747 mmHg 22%
    16:00 +41°C° 0.2 mm 4 mps 747 mmHg 26%
    17:00 +38°C° 0.2 mm 3 mps 747 mmHg 31%
    18:00 +37°C° 0.2 mm 3 mps 747 mmHg 35%
    19:00 +36°C° 0.1 mm 3 mps 747 mmHg 37%
    20:00 +35°C° 0.1 mm 2 mps 748 mmHg 39%
    21:00 +35°C° 0.1 mm 2 mps 748 mmHg 42%
    22:00 +35°C° 0 mm 2 mps 748 mmHg 41%
    23:00 +34°C° 0 mm 2 mps 748 mmHg 41%

    28 August, Monday

    Time Temperature Precipitation Wind Pressure Humidity
    00:00 +34°C° 0 mm 2 mps 747 mmHg 41%
    01:00 +34°C° 0.1 mm 2 mps 747 mmHg 40%
    02:00 +34°C° 0.1 mm 2 mps 747 mmHg 39%
    03:00 +34°C° 0.1 mm 2 mps 747 mmHg 39%
    04:00 +34°C° 0 mm 2 mps 747 mmHg 38%
    05:00 +34°C° 0 mm 2 mps 747 mmHg 38%
    06:00 +34°C° 0 mm 2 mps 748 mmHg 37%
    07:00 +36°C° 0 mm 2 mps 748 mmHg 33%
    08:00 +38°C° 0 mm 2 mps 748 mmHg 29%
    09:00 +39°C° 0 mm 2 mps 748 mmHg 25%
    10:00 +40°C° 0 mm 3 mps 748 mmHg 23%
    11:00 +42°C° 0 mm 3 mps 748 mmHg 22%
    12:00 +43°C° 0 mm 3 mps 747 mmHg 20%
    13:00 +43°C° 0 mm 3 mps 747 mmHg 21%
    14:00 +42°C° 0 mm 4 mps 747 mmHg 22%
    15:00 +42°C° 0 mm 4 mps 747 mmHg 23%
    16:00 +41°C° 0 mm 4 mps 747 mmHg 27%
    17:00 +38°C° 0 mm 3 mps 747 mmHg 31%
    18:00 +37°C° 0 mm 3 mps 747 mmHg 35%
    19:00 +36°C° 0 mm 2 mps 747 mmHg 38%
    20:00 +35°C° 0 mm 2 mps 747 mmHg 41%
    21:00 +34°C° 0 mm 2 mps 748 mmHg 44%
    22:00 +34°C° 0 mm 2 mps 747 mmHg 43%
    23:00 +34°C° 0 mm 2 mps 747 mmHg 43%

    29 August, Tuesday

    Time Temperature Precipitation Wind Pressure Humidity
    00:00 +32°C° 0 mm 2 mps 747 mmHg 43%
    01:00 +34°C° 0 mm 2 mps 746 mmHg 41%
    02:00 +34°C° 0 mm 3 mps 746 mmHg 40%
    03:00 +34°C° 0 mm 3 mps 746 mmHg 38%
    04:00 +34°C° 0 mm 4 mps 746 mmHg 37%
    05:00 +34°C° 0 mm 4 mps 746 mmHg 36%
    06:00 +34°C° 0 mm 4 mps 746 mmHg 35%
    07:00 +37°C° 0 mm 4 mps 746 mmHg 30%
    08:00 +39°C° 0 mm 3 mps 747 mmHg 25%
    09:00 +42°C° 0 mm 3 mps 747 mmHg 20%
    10:00 +42°C° 0 mm 3 mps 746 mmHg 21%
    11:00 +43°C° 0 mm 4 mps 746 mmHg 22%
    12:00 +43°C° 0 mm 4 mps 746 mmHg 23%
    13:00 +42°C° 0 mm 4 mps 746 mmHg 28%
    14:00 +41°C° 0 mm 4 mps 746 mmHg 33%
    15:00 +38°C° 0 mm 4 mps 745 mmHg 39%
    16:00 +37°C° 0 mm 3 mps 745 mmHg 44%
    17:00 +36°C° 0 mm 3 mps 746 mmHg 49%
    18:00 +35°C° 0 mm 2 mps 746 mmHg 54%
    19:00 +34°C° 0 mm 2 mps 746 mmHg 55%
    20:00 +32°C° 0 mm 1 mps 746 mmHg 57%
    21:00 +32°C° 0 mm 1 mps 746 mmHg 58%
    22:00 +32°C° 0 mm 1 mps 746 mmHg 55%
    23:00 +33°C° 0 mm 1 mps 746 mmHg 52%
    Show more